Flag for U.S.A. Weather past 2 weeks in Brattleboro, Vermont, U.S.A.

Now
9 °F

Clear.


Feels Like: -5 °F
Forecast: 3 / 20 °F
Wind: 9 mph from North

Location: Keene / Dillant

Current Time: Jan 26, 2015 at 1:48:07 AM

Latest Report: Jan 26, 2015 at 1:15 AM


Visibility: 10 mi

Pressure: 30.07 "Hg

Humidity: 66%

Dew point: 0 °F

Location of BrattleboroLocation

Historic Weather in Brattleboro — Graph

°F

Brattleboro temperature yesterday

Maximum temperature yesterday: 34 °F (at 5:35 AM)
Minimum temperature yesterday: 10 °F (at 10:55 PM)
Average temperature yesterday: 27 °F

Past Weeks' High & Low Weather Summary

 TemperatureHumidityPressure
High37 °F (Jan 18, 7:35 PM)100% (Jan 11, 8:35 AM)30.65 "Hg (Jan 11, 8:35 AM)
Low-13 °F (Jan 14, 5:15 AM)27% (Jan 17, 4:15 PM)29.23 "Hg (Jan 24, 4:35 PM)
Average19 °F72%30.06 "Hg
* Reported Jan 11 12:15 AM — Jan 26 12:35 AM, Brattleboro, Weather by CustomWeather, © 2014

Note: Actual official high and low records may vary slightly from our data, if they occured in-between our weather recording intervals... More about our weather records

Advertising

Brattleboro weather history for previous 24 hours

 ConditionsComfort  
Time TempWeatherWind HumidityBarometerVisibility
12:35 AM
Jan 26
9 °FClear.No wind66%30.06 "Hg10 mi
12:15 AM10 °FClear.6 mph67%30.05 "Hg10 mi
11:55 PM
Jan 25
12 °FClear.5 mph67%30.04 "Hg10 mi
11:35 PM12 °FClear.8 mph62%30.03 "Hg10 mi
11:15 PM12 °FClear.3 mph62%30.03 "Hg10 mi
10:55 PM10 °FClear.3 mph56%30.01 "Hg10 mi
10:35 PM14 °FClear.6 mph52%30.01 "Hg10 mi
10:15 PM16 °FClear.7 mph48%30.00 "Hg10 mi
9:55 PM16 °FClear.No wind48%29.98 "Hg10 mi
9:35 PM18 °FClear.5 mph45%29.98 "Hg10 mi
9:15 PM18 °FClear.7 mph49%29.96 "Hg10 mi
8:55 PM18 °FClear.8 mph49%29.95 "Hg10 mi
8:35 PM18 °FClear.7 mph53%29.95 "Hg10 mi
8:15 PM18 °FClear.8 mph53%29.94 "Hg10 mi
7:55 PM18 °FClear.9 mph53%29.92 "Hg10 mi
7:35 PM18 °FClear.7 mph53%29.91 "Hg10 mi
7:15 PM19 °FClear.5 mph45%29.90 "Hg10 mi
6:55 PM21 °FClear.3 mph42%29.88 "Hg10 mi
6:35 PM23 °FClear.No wind39%29.86 "Hg10 mi
6:15 PM23 °FClear.7 mph39%29.84 "Hg10 mi
5:55 PM25 °FClear.6 mph36%29.84 "Hg10 mi
5:35 PM23 °FClear.6 mph36%29.83 "Hg10 mi
5:15 PM25 °FClear.6 mph36%29.82 "Hg10 mi
4:55 PM27 °FClear.3 mph31%29.80 "Hg10 mi
4:35 PM27 °FSunny.9 mph31%29.78 "Hg10 mi
3:55 PM28 °FSunny.7 mph31%29.76 "Hg10 mi
3:35 PM28 °FSunny.9 mph31%29.74 "Hg10 mi
3:15 PM30 °FSunny.12 mph29%29.72 "Hg10 mi
2:55 PM30 °FSunny.13 mph29%29.71 "Hg10 mi
2:35 PM30 °FSunny.18 mph31%29.70 "Hg10 mi
2:15 PM30 °FSunny.15 mph31%29.69 "Hg10 mi
1:55 PM30 °FSunny.15 mph31%29.68 "Hg10 mi
1:35 PM30 °FSunny.13 mph31%29.67 "Hg10 mi
1:15 PM30 °FSunny.14 mph31%29.66 "Hg10 mi
12:55 PM30 °FSunny.14 mph31%29.65 "Hg10 mi
12:35 PM30 °FSunny.13 mph34%29.65 "Hg10 mi
12:15 PM30 °FSunny.16 mph37%29.65 "Hg10 mi
11:55 AM30 °FSunny.15 mph37%29.64 "Hg10 mi
11:35 AM30 °FSunny.14 mph43%29.64 "Hg10 mi
11:15 AM30 °FSunny.9 mph43%29.64 "Hg10 mi
10:55 AM30 °FSunny.16 mph47%29.63 "Hg10 mi
10:35 AM30 °FScattered clouds.13 mph55%29.63 "Hg10 mi
10:15 AM30 °FPartly sunny.9 mph59%29.61 "Hg9 mi
9:55 AM32 °FPartly sunny.13 mph69%29.58 "Hg10 mi
9:35 AM34 °FBroken clouds.15 mph60%29.56 "Hg10 mi
9:15 AM34 °FMostly cloudy.7 mph56%29.52 "Hg10 mi
8:55 AM34 °FMostly cloudy.12 mph60%29.51 "Hg10 mi
8:35 AM34 °FMostly cloudy.12 mph60%29.50 "Hg10 mi
8:15 AM34 °FCloudy.14 mph65%29.49 "Hg10 mi
7:55 AM34 °FMostly cloudy.8 mph70%29.48 "Hg10 mi
7:35 AM34 °FOvercast.7 mph70%29.47 "Hg10 mi
6:55 AM32 °FPartly cloudy.7 mph80%29.45 "Hg10 mi
6:35 AM34 °FOvercast.8 mph75%29.44 "Hg10 mi
6:15 AM34 °FMostly cloudy.7 mph75%29.44 "Hg10 mi
5:55 AM34 °FOvercast.9 mph75%29.43 "Hg10 mi
5:35 AM34 °FMostly cloudy.8 mph75%29.42 "Hg10 mi
5:15 AM32 °FOvercast.9 mph80%29.42 "Hg10 mi
4:55 AM32 °FMostly cloudy.9 mph80%29.41 "Hg10 mi
4:35 AM30 °FPassing clouds.9 mph86%29.41 "Hg10 mi
4:15 AM30 °FPassing clouds.7 mph80%29.40 "Hg10 mi
3:55 AM30 °FOvercast.No wind80%29.39 "Hg10 mi
3:35 AM30 °FMostly cloudy.No wind80%29.38 "Hg10 mi
3:15 AM30 °FOvercast.3 mph80%29.37 "Hg10 mi
2:55 AM28 °FOvercast.No wind86%29.37 "Hg10 mi
2:35 AM28 °FOvercast.No wind86%29.36 "Hg10 mi
2:15 AM28 °FOvercast.6 mph86%29.36 "Hg10 mi
1:55 AM28 °FOvercast.3 mph86%29.35 "Hg10 mi
1:35 AM28 °FOvercast.5 mph80%29.35 "Hg10 mi
1:15 AM28 °FOvercast.8 mph86%29.33 "Hg10 mi
Weather by CustomWeather, © 2014

See weather overviewHow to use our weather pages